EW7512 Weather Reports


time (UTC)temp
C
wind
direction
speed
KPH
gust
KPH
rain 1hr
cm
rain 24hr
cm
rain mn
cm
humidity
%
barometer
mb
20260507194522 17 77 0.0 6.4 0.00 0.00 0.00 48 1019.5
20260507194019 17 82 1.6 6.4 0.00 0.00 0.00 49 1019.5
20260507193515 17 78 1.6 6.4 0.00 0.00 0.00 50 1019.5
20260507193018 17 103 0.0 4.8 0.00 0.00 0.00 50 1019.5
20260507192516 17 95 0.0 4.8 0.00 0.00 0.00 51 1019.5
20260507192015 17 94 0.0 4.8 0.00 0.00 0.00 52 1019.5
20260507191519 17 94 1.6 4.8 0.00 0.00 0.00 52 1019.4
20260507191017 17 90 0.0 3.2 0.00 0.00 0.00 53 1019.4
20260507190514 17 95 0.0 3.2 0.00 0.00 0.00 53 1019.4
20260507190016 17 94 1.6 3.2 0.00 0.00 0.00 53 1019.4
20260507185513 17 94 0.0 3.2 0.00 0.00 0.00 53 1019.4
20260507185013 17 93 0.0 6.4 0.00 0.00 0.00 52 1019.5
20260507184520 17 71 0.0 3.2 0.00 0.00 0.00 51 1019.4
20260507184014 17 72 0.0 3.2 0.00 0.00 0.00 51 1019.3
20260507183513 17 72 0.0 3.2 0.00 0.00 0.00 50 1019.3
20260507183014 17 72 0.0 3.2 0.00 0.00 0.00 49 1019.3
20260507182513 17 74 0.0 4.8 0.00 0.00 0.00 48 1019.3
20260507182013 17 74 1.6 4.8 0.00 0.00 0.00 47 1019.1
20260507181512 17 98 0.0 4.8 0.00 0.00 0.00 46 1019.2
20260507181018 17 97 0.0 4.8 0.00 0.00 0.00 44 1019.2
20260507180512 17 130 1.6 4.8 0.00 0.00 0.00 43 1019.2
20260507180017 17 142 1.6 4.8 0.00 0.00 0.00 43 1019.3
20260507175514 17 176 0.0 6.4 0.00 0.00 0.00 42 1019.2
20260507175014 17 47 1.6 6.4 0.00 0.00 0.00 43 1019.1
20260507174520 17 63 1.6 6.4 0.00 0.00 0.00 43 1019.1
20260507174015 17 57 1.6 6.4 0.00 0.00 0.00 43 1019.0
20260507173512 17 140 0.0 3.2 0.00 0.00 0.00 44 1019.1
20260507173025 18 168 0.0 1.6 0.00 0.00 0.00 42 1019.2
20260507172512 18 167 0.0 4.8 0.00 0.00 0.00 43 1019.1
20260507172010 18 167 1.6 6.4 0.00 0.00 0.00 44 1019.2
20260507171520 18 96 0.0 0.0 0.00 0.00 0.00 45 1019.1
20260507171011 18 94 0.0 0.0 0.00 0.00 0.00 45 1018.9
20260507170511 18 94 0.0 0.0 0.00 0.00 0.00 45 1018.8
20260507170010 18 360 0.0 0.0 0.00 0.00 0.00 45 1018.7
20260507165514 18 360 0.0 0.0 0.00 0.00 0.00 45 1018.7
20260507165010 18 360 0.0 0.0 0.00 0.00 0.00 45 1018.8
20260507164513 18 360 0.0 0.0 0.00 0.00 0.00 46 1018.7
20260507164010 18 360 0.0 0.0 0.00 0.00 0.00 45 1018.8
20260507163514 18 360 0.0 1.6 0.00 0.00 0.00 45 1018.8
20260507163010 19 86 0.0 3.2 0.00 0.00 0.00 43 1019.0
20260507162515 19 87 0.0 3.2 0.00 0.00 0.00 43 1019.0
20260507162010 19 86 0.0 1.6 0.00 0.00 0.00 43 1018.9
20260507161509 19 360 0.0 4.8 0.00 0.00 0.00 43 1018.9
20260507161009 19 86 1.6 4.8 0.00 0.00 0.00 42 1019.0
20260507160509 19 360 0.0 4.8 0.00 0.00 0.00 42 1019.0
20260507160011 20 80 0.0 6.4 0.00 0.00 0.00 41 1019.0
20260507155515 20 80 1.6 6.4 0.00 0.00 0.00 40 1019.0
20260507155011 20 41 1.6 8.0 0.00 0.00 0.00 40 1018.9
20260507154508 20 76 1.6 8.0 0.00 0.00 0.00 38 1018.9
20260507154011 20 20 3.2 6.4 0.00 0.00 0.00 37 1019.0
20260507153508 20 76 3.2 8.0 0.00 0.00 0.00 36 1019.2
20260507153008 21 96 1.6 6.4 0.00 0.00 0.00 35 1019.2
20260507152508 21 66 3.2 9.7 0.00 0.00 0.00 36 1019.2
20260507152013 21 84 1.6 9.7 0.00 0.00 0.00 35 1019.1
20260507151508 21 67 1.6 11.3 0.00 0.00 0.00 33 1019.1
20260507151008 21 59 3.2 11.3 0.00 0.00 0.00 33 1019.1
20260507150509 21 16 1.6 8.0 0.00 0.00 0.00 34 1019.1
20260507150007 21 69 3.2 8.0 0.00 0.00 0.00 34 1019.2
20260507145507 21 78 1.6 11.3 0.00 0.00 0.00 34 1019.1
20260507145012 21 138 3.2 12.9 0.00 0.00 0.00 34 1019.1
20260507144506 21 80 4.8 12.9 0.00 0.00 0.00 33 1019.1
20260507144006 21 74 3.2 9.7 0.00 0.00 0.00 34 1019.1
20260507143510 22 71 1.6 6.4 0.00 0.00 0.00 34 1019.2
20260507143006 22 50 1.6 14.5 0.00 0.00 0.00 33 1019.1
20260507142506 22 314 4.8 14.5 0.00 0.00 0.00 31 1019.1
20260507142007 22 86 3.2 8.0 0.00 0.00 0.00 34 1019.1
20260507141504 22 80 1.6 12.9 0.00 0.00 0.00 34 1018.9
20260507141004 22 29 3.2 12.9 0.00 0.00 0.00 35 1018.8
20260507140504 22 126 3.2 11.3 0.00 0.00 0.00 34 1018.8
20260507140004 22 136 1.6 12.9 0.00 0.00 0.00 34 1018.7
20260507135503 22 35 1.6 8.0 0.00 0.00 0.00 38 1018.6
20260507135004 23 171 1.6 9.7 0.00 0.00 0.00 40 1018.7
20260507134504 22 105 1.6 9.7 0.00 0.00 0.00 39 1018.7
20260507134003 22 92 3.2 9.7 0.00 0.00 0.00 44 1018.7
20260507133503 22 90 3.2 9.7 0.00 0.00 0.00 44 1018.5
20260507133002 22 87 1.6 8.0 0.00 0.00 0.00 47 1018.5
20260507132503 22 45 1.6 8.0 0.00 0.00 0.00 46 1018.6
20260507132002 22 69 1.6 8.0 0.00 0.00 0.00 44 1018.5
20260507131502 22 67 1.6 6.4 0.00 0.00 0.00 45 1018.5
20260507131002 22 360 1.6 8.0 0.00 0.00 0.00 45 1018.6
20260507130503 22 50 1.6 8.0 0.00 0.00 0.00 43 1018.6
20260507130002 22 54 1.6 6.4 0.00 0.00 0.00 41 1018.8
20260507125502 22 282 1.6 6.4 0.00 0.00 0.00 41 1018.9
20260507125002 22 83 1.6 17.7 0.00 0.00 0.00 39 1019.0
20260507124501 23 347 3.2 17.7 0.00 0.00 0.00 40 1019.0
20260507124002 23 103 3.2 11.3 0.00 0.00 0.00 39 1019.0
20260507123501 23 71 3.2 11.3 0.00 0.00 0.00 39 1019.1
20260507123002 23 161 3.2 11.3 0.00 0.00 0.00 38 1019.2
20260507122500 23 83 1.6 9.7 0.00 0.00 0.00 37 1019.2
20260507122101 24 110 3.2 9.7 0.00 0.00 0.00 36 1019.1
20260507121603 24 61 3.2 9.7 0.00 0.00 0.00 36 1019.1
20260507121100 23 42 3.2 12.9 0.00 0.00 0.00 35 1019.2
20260507120559 24 144 1.6 12.9 0.00 0.00 0.00 33 1019.2
20260507120105 24 63 4.8 12.9 0.00 0.00 0.00 33 1019.1
20260507115558 25 51 3.2 8.0 0.00 0.00 0.00 36 1019.1
20260507115057 25 88 3.2 16.1 0.00 0.00 0.00 37 1019.1
20260507114610 24 67 3.2 8.0 0.00 0.00 0.00 39 1019.2
20260507114057 24 65 3.2 9.7 0.00 0.00 0.00 39 1019.2
20260507113558 24 68 4.8 9.7 0.00 0.00 0.00 40 1019.2
20260507113057 24 137 3.2 11.3 0.00 0.00 0.00 39 1019.2
20260507112557 24 100 3.2 14.5 0.00 0.00 0.00 37 1019.3
20260507112059 24 30 4.8 12.9 0.00 0.00 0.00 39 1019.4
20260507111555 25 51 4.8 12.9 0.00 0.00 0.00 40 1019.3
20260507111053 24 52 3.2 12.9 0.00 0.00 0.00 38 1019.2
20260507110558 25 72 3.2 12.9 0.00 0.00 0.00 40 1019.1
20260507110054 25 80 3.2 8.0 0.00 0.00 0.00 41 1019.1
20260507105553 25 92 3.2 12.9 0.00 0.00 0.00 41 1019.1
20260507105052 25 102 4.8 9.7 0.00 0.00 0.00 43 1019.2
20260507104553 25 67 3.2 9.7 0.00 0.00 0.00 44 1019.0
20260507104051 25 126 3.2 6.4 0.00 0.00 0.00 46 1019.0
20260507103551 24 90 1.6 14.5 0.00 0.00 0.00 45 1018.9
20260507103055 24 131 3.2 14.5 0.00 0.00 0.00 43 1018.9
20260507102551 24 195 3.2 12.9 0.00 0.00 0.00 45 1019.0
20260507102050 23 62 3.2 14.5 0.00 0.00 0.00 45 1018.9
20260507101550 23 184 6.4 14.5 0.00 0.00 0.00 43 1019.1
20260507101052 24 188 3.2 14.5 0.00 0.00 0.00 42 1019.0
20260507100554 24 257 3.2 14.5 0.00 0.00 0.00 41 1019.1
20260507100052 24 259 4.8 12.9 0.00 0.00 0.00 42 1019.1
20260507095552 24 90 3.2 8.0 0.00 0.00 0.00 40 1019.0
20260507095049 25 173 1.6 8.0 0.00 0.00 0.00 42 1019.1
20260507094557 24 67 1.6 11.3 0.00 0.00 0.00 42 1019.0
20260507094046 24 47 3.2 11.3 0.00 0.00 0.00 43 1019.0
20260507093546 24 88 3.2 11.3 0.00 0.00 0.00 44 1019.0
20260507093046 24 114 3.2 9.7 0.00 0.00 0.00 45 1018.9
20260507092545 23 83 3.2 9.7 0.00 0.00 0.00 45 1019.0
20260507092045 23 78 3.2 8.0 0.00 0.00 0.00 49 1019.0
20260507091544 23 65 3.2 12.9 0.00 0.00 0.00 51 1019.0
20260507091043 23 96 3.2 12.9 0.00 0.00 0.00 52 1018.8
20260507090543 23 317 3.2 9.7 0.00 0.00 0.00 49 1018.8
20260507090044 23 97 1.6 6.4 0.00 0.00 0.00 58 1019.0
20260507085542 22 80 0.0 6.4 0.00 0.00 0.00 62 1018.9
20260507085042 22 119 3.2 6.4 0.00 0.00 0.00 60 1019.0
20260507084543 22 146 1.6 6.4 0.00 0.00 0.00 60 1019.1
20260507084041 23 121 1.6 6.4 0.00 0.00 0.00 58 1019.1
20260507083541 23 319 3.2 11.3 0.00 0.00 0.00 51 1019.1
20260507083040 23 121 1.6 12.9 0.00 0.00 0.00 42 1019.0
20260507082539 23 170 6.4 12.9 0.00 0.00 0.00 42 1019.0
20260507082042 23 54 1.6 8.0 0.00 0.00 0.00 43 1019.0
20260507081541 23 80 3.2 9.7 0.00 0.00 0.00 43 1018.9
20260507081037 23 24 3.2 9.7 0.00 0.00 0.00 43 1018.9
20260507080537 23 40 3.2 8.0 0.00 0.00 0.00 45 1019.0
20260507080038 22 119 0.0 6.4 0.00 0.00 0.00 47 1019.0
20260507075535 22 73 3.2 6.4 0.00 0.00 0.00 54 1019.0
20260507075035 21 159 1.6 11.3 0.00 0.00 0.00 56 1018.9
20260507074535 21 127 3.2 16.1 0.00 0.00 0.00 55 1018.9
20260507074034 23 128 6.4 16.1 0.00 0.00 0.00 49 1018.7
20260507073534 23 317 1.6 6.4 0.00 0.00 0.00 41 1018.5
20260507073033 23 21 0.0 6.4 0.00 0.00 0.00 44 1018.6
20260507072532 23 9 3.2 8.0 0.00 0.00 0.00 44 1018.6
20260507072030 22 103 3.2 8.0 0.00 0.00 0.00 42 1018.6
20260507071530 22 87 3.2 8.0 0.00 0.00 0.00 41 1018.6
20260507071029 22 35 3.2 6.4 0.00 0.00 0.00 42 1018.8
20260507070529 22 159 1.6 6.4 0.00 0.00 0.00 45 1018.8
20260507070040 22 100 0.0 6.4 0.00 0.00 0.00 45 1018.8
20260507065526 22 349 0.0 6.4 0.00 0.00 0.00 48 1018.8
20260507065026 21 55 0.0 6.4 0.00 0.00 0.00 53 1018.8
20260507064524 21 54 1.6 6.4 0.00 0.00 0.00 51 1018.9
20260507064026 21 64 0.0 4.8 0.00 0.00 0.00 50 1018.8
20260507063522 21 52 0.0 4.8 0.00 0.00 0.00 54 1018.8
20260507063020 21 53 1.6 4.8 0.00 0.00 0.00 58 1018.8
20260507062518 20 53 1.6 3.2 0.00 0.00 0.00 57 1018.7
20260507062016 20 52 0.0 3.2 0.00 0.00 0.00 60 1018.6
20260507061515 19 52 1.6 4.8 0.00 0.00 0.00 60 1018.5
20260507061020 19 51 0.0 4.8 0.00 0.00 0.00 60 1018.6
20260507060513 19 53 1.6 4.8 0.00 0.00 0.00 60 1018.5
20260507060016 19 55 1.6 4.8 0.00 0.00 0.00 59 1018.6
20260507055513 19 71 1.6 3.2 0.00 0.00 0.00 58 1018.6
20260507055011 19 75 1.6 3.2 0.00 0.00 0.00 59 1018.5
20260507054511 19 79 0.0 3.2 0.00 0.00 0.00 60 1018.5
20260507054009 18 79 0.0 3.2 0.00 0.00 0.00 57 1018.4
20260507053508 18 78 1.6 3.2 0.00 0.00 0.00 56 1018.4
20260507053007 18 79 0.0 3.2 0.00 0.00 0.00 58 1018.2
20260507052505 17 79 0.0 3.2 0.00 0.00 0.00 58 1018.3
20260507052007 17 79 0.0 3.2 0.00 0.00 0.00 63 1018.3
20260507051503 17 80 1.6 3.2 0.00 0.00 0.00 62 1018.3
20260507051000 17 80 0.0 3.2 0.00 0.00 0.00 57 1018.2
20260507050559 16 80 0.0 3.2 0.00 0.00 0.00 65 1018.3
20260507050058 16 80 0.0 3.2 0.00 0.00 0.00 65 1018.3
20260507045557 15 79 0.0 1.6 0.00 0.00 0.00 67 1018.3
20260507045056 15 78 0.0 1.6 0.00 0.00 0.00 67 1018.3
20260507044610 15 80 0.0 0.0 0.00 0.00 0.00 66 1018.2
20260507044056 15 80 0.0 0.0 0.00 0.00 0.00 67 1018.2
20260507043551 15 79 0.0 0.0 0.00 0.00 0.00 68 1018.1
20260507043051 14 80 0.0 0.0 0.00 0.00 0.00 70 1018.1
20260507042547 14 80 0.0 1.6 0.00 0.00 0.00 70 1018.1
20260507042046 13 81 0.0 1.6 0.00 0.00 0.00 70 1018.1
20260507041547 14 360 0.0 0.0 0.00 0.00 0.00 71 1018.1
20260507041045 13 80 0.0 0.0 0.00 0.00 0.00 71 1018.1
20260507040542 13 80 0.0 0.0 0.00 0.00 0.00 71 1018.1
20260507040045 13 80 0.0 0.0 0.00 0.00 0.00 71 1018.2
20260507035539 12 80 0.0 1.6 0.00 0.00 0.00 71 1018.1
20260507035038 12 79 0.0 1.6 0.00 0.00 0.00 72 1018.2
20260507034542 12 79 0.0 1.6 0.00 0.00 0.00 72 1018.1
20260507034037 12 360 0.0 3.2 0.00 0.00 0.00 72 1018.1
20260507033535 12 360 0.0 3.2 0.00 0.00 0.00 72 1018.1
20260507033045 12 360 0.0 1.6 0.00 0.00 0.00 72 1018.0
20260507032534 12 360 0.0 1.6 0.00 0.00 0.00 72 1017.9
20260507032040 12 360 0.0 3.2 0.00 0.00 0.00 72 1018.0
20260507031545 12 360 0.0 3.2 0.00 0.00 0.00 71 1017.9
20260507031033 12 360 0.0 3.2 0.00 0.00 0.00 71 1017.7
20260507030533 12 360 0.0 3.2 0.00 0.00 0.00 71 1017.7
20260507030033 12 360 0.0 3.2 0.00 0.00 0.00 71 1017.6
20260507025530 12 360 0.0 3.2 0.00 0.00 0.00 71 1017.6
20260507025030 12 360 0.0 3.2 0.00 0.00 0.00 71 1017.5
20260507024529 12 104 0.0 3.2 0.00 0.00 0.00 71 1017.6
20260507024028 12 360 0.0 4.8 0.00 0.00 0.00 70 1017.7
20260507023528 13 360 0.0 3.2 0.00 0.00 0.00 70 1017.7
20260507023028 13 106 0.0 3.2 0.00 0.00 0.00 70 1017.7
20260507022529 13 360 0.0 4.8 0.00 0.00 0.00 70 1017.6
20260507022028 13 360 0.0 3.2 0.00 0.00 0.00 69 1017.6
20260507021527 13 111 0.0 3.2 0.00 0.00 0.00 68 1017.6
20260507021028 13 111 0.0 1.6 0.00 0.00 0.00 68 1017.5
20260507020528 13 360 0.0 1.6 0.00 0.00 0.00 68 1017.5
20260507020028 13 360 0.0 0.0 0.00 0.00 0.00 65 1017.5
20260507015527 13 360 0.0 0.0 0.00 0.00 0.00 64 1017.5
20260507015026 14 360 0.0 3.2 0.00 0.00 0.00 64 1017.4
20260507014537 13 360 0.0 3.2 0.00 0.00 0.00 66 1017.4
20260507014026 13 360 0.0 0.0 0.00 0.00 0.00 67 1017.4
20260507013525 13 360 0.0 0.0 0.00 0.00 0.00 66 1017.3
20260507013034 13 360 0.0 0.0 0.00 0.00 0.00 66 1017.3
20260507012527 13 112 0.0 1.6 0.00 0.00 0.00 66 1017.2
20260507012026 13 360 0.0 3.2 0.00 0.00 0.00 67 1017.1
20260507011532 13 360 0.0 3.2 0.00 0.00 0.00 68 1017.1
20260507011028 13 360 0.0 3.2 0.00 0.00 0.00 68 1017.0
20260507010525 13 360 0.0 3.2 0.00 0.00 0.00 68 1017.0
20260507010031 13 360 0.0 3.2 0.00 0.00 0.00 67 1017.1
20260507005528 13 360 0.0 3.2 0.00 0.00 0.00 67 1017.1
20260507005030 13 360 0.0 1.6 0.00 0.00 0.00 66 1017.1
20260507004523 13 360 0.0 0.0 0.00 0.00 0.00 66 1017.1
20260507004023 13 360 0.0 1.6 0.00 0.00 0.00 65 1017.0
20260507003523 13 111 0.0 4.8 0.00 0.00 0.00 65 1017.1
20260507003022 13 360 1.6 4.8 0.00 0.00 0.00 65 1017.1
20260507002522 13 360 0.0 0.0 0.00 0.00 0.00 64 1017.1
20260507002022 13 360 0.0 0.0 0.00 0.00 0.00 64 1017.1
20260507001526 13 360 0.0 0.0 0.00 0.00 0.00 65 1017.2
20260507001020 13 360 0.0 3.2 0.00 0.00 0.00 66 1017.3
20260507000520 12 360 0.0 3.2 0.00 0.00 0.00 66 1017.3
20260507000019 13 360 0.0 1.6 0.00 0.00 0.00 66 1017.3
20260506235519 13 360 0.0 0.0 0.00 0.00 0.00 66 1017.4
20260506235016 13 360 0.0 0.0 0.00 0.00 0.00 66 1017.5
20260506234516 13 360 0.0 1.6 0.00 0.00 0.00 66 1017.6
20260506234015 13 360 0.0 1.6 0.00 0.00 0.00 66 1017.7
20260506233516 13 360 0.0 1.6 0.00 0.00 0.00 65 1017.7
20260506233014 13 360 0.0 0.0 0.00 0.00 0.00 65 1017.8
20260506232513 13 360 0.0 0.0 0.00 0.00 0.00 64 1017.7
20260506232012 13 360 0.0 0.0 0.00 0.00 0.00 63 1017.7
20260506231512 13 360 0.0 1.6 0.00 0.00 0.00 63 1017.8
20260506231012 13 360 0.0 1.6 0.00 0.00 0.00 63 1017.8
20260506230510 13 360 0.0 0.0 0.00 0.00 0.00 63 1017.7
20260506230010 14 360 0.0 1.6 0.00 0.00 0.00 61 1017.7
20260506225513 14 360 0.0 1.6 0.00 0.00 0.00 60 1017.7
20260506225016 14 360 0.0 1.6 0.00 0.00 0.00 60 1017.8
20260506224508 14 360 0.0 1.6 0.00 0.00 0.00 59 1017.8
20260506224006 14 360 0.0 1.6 0.00 0.00 0.00 59 1017.8
20260506223506 14 360 0.0 1.6 0.00 0.00 0.00 60 1017.8
20260506223009 14 360 0.0 0.0 0.00 0.00 0.00 60 1017.9
20260506222505 14 360 0.0 1.6 0.00 0.00 0.00 59 1018.0
20260506222004 14 360 0.0 1.6 0.00 0.00 0.00 59 1018.1
20260506221505 14 360 0.0 1.6 0.00 0.00 0.00 59 1018.1
20260506221005 14 360 0.0 1.6 0.00 0.00 0.00 59 1018.1
20260506220504 14 360 0.0 1.6 0.00 0.00 0.00 59 1018.0
20260506220005 14 360 0.0 1.6 0.00 0.00 0.00 59 1018.0
20260506215506 14 360 0.0 1.6 0.00 0.00 0.00 59 1018.0
20260506215003 14 360 0.0 0.0 0.00 0.00 0.00 59 1018.1
20260506214503 14 107 0.0 1.6 0.00 0.00 0.00 59 1018.1
20260506214002 14 360 0.0 1.6 0.00 0.00 0.00 58 1018.1
20260506213501 14 360 0.0 1.6 0.00 0.00 0.00 58 1018.2
20260506213107 14 360 0.0 1.6 0.00 0.00 0.00 57 1018.2
20260506212600 14 360 0.0 1.6 0.00 0.00 0.00 57 1018.3
20260506212101 14 360 0.0 0.0 0.00 0.00 0.00 57 1018.3
20260506211559 15 105 0.0 0.0 0.00 0.00 0.00 57 1018.3
20260506211059 15 360 0.0 0.0 0.00 0.00 0.00 57 1018.3
20260506210602 15 360 0.0 0.0 0.00 0.00 0.00 56 1018.3
20260506210057 15 360 0.0 0.0 0.00 0.00 0.00 57 1018.4
20260506205556 15 360 0.0 0.0 0.00 0.00 0.00 56 1018.4
20260506205056 15 360 0.0 0.0 0.00 0.00 0.00 55 1018.4
20260506204556 15 360 0.0 1.6 0.00 0.00 0.00 56 1018.5
20260506204055 15 360 0.0 1.6 0.00 0.00 0.00 56 1018.5
20260506203555 15 360 0.0 1.6 0.00 0.00 0.00 56 1018.5
20260506203056 15 360 0.0 1.6 0.00 0.00 0.00 56 1018.4
20260506202555 15 360 0.0 1.6 0.00 0.00 0.00 55 1018.4
20260506202055 15 360 0.0 1.6 0.00 0.00 0.00 55 1018.4
20260506201557 15 360 0.0 1.6 0.00 0.00 0.00 56 1018.4
20260506201054 15 360 0.0 3.2 0.00 0.00 0.00 56 1018.4
20260506200554 15 104 0.0 3.2 0.00 0.00 0.00 56 1018.3
20260506200053 15 360 0.0 1.6 0.00 0.00 0.00 56 1018.3
20260506195553 15 360 0.0 1.6 0.00 0.00 0.00 55 1018.3
20260506195054 15 360 0.0 1.6 0.00 0.00 0.00 55 1018.3